Terug naar catalogus

DELTA 2 DEB

ActiefHEO
NORAD 26967·DEBRIS·🇺🇸 United States

Gelanceerd Mar 30, 1993 vanaf Cape Canaveral Space Force Station

Loading…

Volgende Passages (komende 24 uur)

TLE

VersSource: Space-Track

Epoch: Sep 5, 2026, 20:16 UTC

1 26967U 93017E   26248.84446131  .00017394  00000-0  30450-3 0  9992
2 26967  34.9553  79.5270 3668009 228.3301  93.9752  8.16035666637510

Volg DELTA 2 DEB in realtime met AllMySat

Download on the App Store